TimeCDT,TemperatureF,Dew PointF,Humidity,Sea Level PressureIn,VisibilityMPH,Wind Direction,Wind SpeedMPH,Gust SpeedMPH,PrecipitationIn,Events,Conditions,WindDirDegrees,DateUTC
12:15 AM,46.4,44.6,93,30.18,7.0,ENE,3.5,-,N/A,Rain,Light Rain,60,2012-10-08 05:15:00
12:35 AM,46.4,44.6,93,30.20,7.0,Calm,Calm,-,N/A,Rain,Light Rain,0,2012-10-08 05:35:00
12:55 AM,46.4,44.6,93,30.20,7.0,Calm,Calm,-,0.01,Rain,Light Rain,0,2012-10-08 05:55:00
1:15 AM,46.4,44.6,93,30.20,5.0,Calm,Calm,-,N/A,Rain,Light Rain,0,2012-10-08 06:15:00
1:35 AM,46.4,44.6,93,30.20,2.5,Calm,Calm,-,0.06,Rain,Rain,0,2012-10-08 06:35:00
1:55 AM,46.4,44.6,93,30.22,3.0,Calm,Calm,-,0.13,Rain,Rain,0,2012-10-08 06:55:00
2:15 AM,46.4,44.6,93,30.23,2.5,Calm,Calm,-,0.06,Rain,Rain,0,2012-10-08 07:15:00
2:35 AM,46.4,44.6,93,30.22,2.5,Calm,Calm,-,0.13,Rain,Rain,0,2012-10-08 07:35:00
2:55 AM,44.6,44.6,100,30.21,2.5,Calm,Calm,-,0.21,Rain,Rain,0,2012-10-08 07:55:00
3:15 AM,44.6,44.6,100,30.23,5.0,NW,5.8,-,0.01,Rain,Light Rain,320,2012-10-08 08:15:00
3:35 AM,44.6,42.8,93,30.21,4.0,Calm,Calm,-,0.03,Rain,Light Rain,0,2012-10-08 08:35:00
3:55 AM,44.6,42.8,93,30.20,5.0,Calm,Calm,-,0.04,Rain,Light Rain,0,2012-10-08 08:55:00
4:15 AM,44.6,42.8,93,30.21,5.0,NNE,3.5,-,N/A,Rain,Light Rain,20,2012-10-08 09:15:00
4:35 AM,44.6,42.8,93,30.21,5.0,Calm,Calm,-,N/A,Rain,Light Rain,0,2012-10-08 09:35:00
4:55 AM,44.6,44.6,100,30.21,10.0,Calm,Calm,-,0.01,,Mostly Cloudy,0,2012-10-08 09:55:00
5:15 AM,44.6,44.6,100,30.22,9.0,Calm,Calm,-,N/A,,Overcast,0,2012-10-08 10:15:00
5:35 AM,44.6,42.8,93,30.22,9.0,Calm,Calm,-,N/A,,Overcast,0,2012-10-08 10:35:00
5:55 AM,44.6,42.8,93,30.22,10.0,NNE,3.5,-,N/A,,Overcast,20,2012-10-08 10:55:00
6:15 AM,44.6,42.8,93,30.23,10.0,North,3.5,-,N/A,,Overcast,10,2012-10-08 11:15:00
6:35 AM,44.6,42.8,93,30.23,10.0,North,3.5,-,N/A,,Overcast,360,2012-10-08 11:35:00
7:15 AM,44.6,42.8,93,30.24,9.0,Calm,Calm,-,N/A,,Overcast,0,2012-10-08 12:15:00
7:35 AM,44.6,42.8,93,30.24,8.0,Calm,Calm,-,N/A,,Overcast,0,2012-10-08 12:35:00
7:55 AM,44.6,42.8,93,30.24,9.0,Calm,Calm,-,N/A,,Overcast,0,2012-10-08 12:55:00
8:15 AM,46.4,42.8,87,30.25,9.0,Calm,Calm,-,N/A,,Mostly Cloudy,0,2012-10-08 13:15:00
8:35 AM,46.4,42.8,87,30.25,8.0,Calm,Calm,-,N/A,,Mostly Cloudy,0,2012-10-08 13:35:00
8:55 AM,46.4,44.6,93,30.26,8.0,North,3.5,-,N/A,,Mostly Cloudy,10,2012-10-08 13:55:00
9:15 AM,48.2,44.6,87,30.26,8.0,NNE,3.5,-,N/A,,Scattered Clouds,20,2012-10-08 14:15:00
9:35 AM,48.2,42.8,82,30.26,9.0,NNW,3.5,-,N/A,,Mostly Cloudy,340,2012-10-08 14:35:00
9:55 AM,50.0,42.8,76,30.26,9.0,Calm,Calm,-,N/A,,Overcast,0,2012-10-08 14:55:00
10:15 AM,50.0,42.8,76,30.26,8.0,Calm,Calm,-,N/A,,Mostly Cloudy,0,2012-10-08 15:15:00
10:35 AM,50.0,41.0,71,30.26,9.0,Calm,Calm,-,N/A,,Overcast,0,2012-10-08 15:35:00
10:55 AM,51.8,42.8,71,30.26,9.0,North,3.5,-,N/A,,Mostly Cloudy,10,2012-10-08 15:55:00
11:15 AM,53.6,42.8,67,30.26,10.0,NNE,5.8,-,N/A,,Overcast,20,2012-10-08 16:15:00
11:35 AM,53.6,41.0,62,30.25,9.0,North,6.9,-,N/A,,Mostly Cloudy,350,2012-10-08 16:35:00
11:55 AM,53.6,41.0,62,30.24,10.0,ENE,3.5,-,N/A,,Mostly Cloudy,60,2012-10-08 16:55:00
12:15 PM,53.6,41.0,62,30.24,9.0,NNE,6.9,-,N/A,,Mostly Cloudy,20,2012-10-08 17:15:00
12:35 PM,53.6,41.0,62,30.23,10.0,Calm,Calm,-,N/A,,Mostly Cloudy,0,2012-10-08 17:35:00
12:55 PM,57.2,41.0,55,30.23,9.0,NE,5.8,-,N/A,,Clear,50,2012-10-08 17:55:00
1:15 PM,57.2,41.0,55,30.22,9.0,East,4.6,-,N/A,,Clear,100,2012-10-08 18:15:00
1:35 PM,55.4,39.2,54,30.20,9.0,North,3.5,-,N/A,,Mostly Cloudy,350,2012-10-08 18:35:00
1:55 PM,57.2,41.0,55,30.20,9.0,ENE,4.6,-,N/A,,Mostly Cloudy,60,2012-10-08 18:55:00
2:15 PM,55.4,39.2,54,30.19,9.0,North,3.5,-,N/A,,Overcast,360,2012-10-08 19:15:00
2:35 PM,55.4,39.2,54,30.19,10.0,Calm,Calm,-,N/A,,Mostly Cloudy,0,2012-10-08 19:35:00
2:55 PM,57.2,39.2,51,30.18,9.0,NE,3.5,-,N/A,,Mostly Cloudy,50,2012-10-08 19:55:00
3:15 PM,55.4,41.0,58,30.18,9.0,North,3.5,-,N/A,,Overcast,10,2012-10-08 20:15:00
3:35 PM,57.2,41.0,55,30.17,9.0,Calm,Calm,-,N/A,,Overcast,0,2012-10-08 20:35:00
3:55 PM,57.2,41.0,55,30.17,9.0,Calm,Calm,-,N/A,,Overcast,0,2012-10-08 20:55:00
4:15 PM,55.4,41.0,58,30.17,10.0,East,3.5,-,N/A,,Overcast,80,2012-10-08 21:15:00
4:35 PM,55.4,41.0,58,30.17,9.0,Calm,Calm,-,N/A,,Overcast,0,2012-10-08 21:35:00
4:55 PM,55.4,41.0,58,30.17,8.0,NNW,3.5,-,N/A,,Overcast,340,2012-10-08 21:55:00
5:15 PM,55.4,41.0,58,30.16,10.0,Calm,Calm,-,N/A,,Overcast,0,2012-10-08 22:15:00
5:55 PM,55.4,41.0,58,30.16,9.0,Calm,Calm,-,N/A,,Mostly Cloudy,0,2012-10-08 22:55:00
6:15 PM,55.4,44.6,67,30.16,9.0,Calm,Calm,-,N/A,,Overcast,0,2012-10-08 23:15:00
6:35 PM,53.6,46.4,77,30.16,10.0,Calm,Calm,-,N/A,,Overcast,0,2012-10-08 23:35:00
6:55 PM,51.8,46.4,82,30.16,10.0,Calm,Calm,-,N/A,,Mostly Cloudy,0,2012-10-08 23:55:00
7:35 PM,48.2,46.4,93,30.16,10.0,Calm,Calm,-,N/A,,Overcast,0,2012-10-09 00:35:00
7:55 PM,48.2,46.4,93,30.16,10.0,Calm,Calm,-,N/A,,Overcast,0,2012-10-09 00:55:00
8:15 PM,48.2,46.4,93,30.16,9.0,Calm,Calm,-,N/A,,Overcast,0,2012-10-09 01:15:00
8:35 PM,48.2,46.4,93,30.17,9.0,Calm,Calm,-,N/A,,Scattered Clouds,0,2012-10-09 01:35:00
8:55 PM,46.4,46.4,100,30.18,9.0,Calm,Calm,-,N/A,,Clear,0,2012-10-09 01:55:00
9:15 PM,46.4,44.6,93,30.18,7.0,Calm,Calm,-,N/A,,Clear,0,2012-10-09 02:15:00
9:35 PM,44.6,44.6,100,30.18,8.0,Calm,Calm,-,N/A,,Clear,0,2012-10-09 02:35:00
9:55 PM,44.6,42.8,93,30.17,8.0,Calm,Calm,-,N/A,,Clear,0,2012-10-09 02:55:00
11:15 PM,42.8,41.0,93,30.17,8.0,Calm,Calm,-,N/A,,Clear,0,2012-10-09 04:15:00
11:35 PM,41.0,41.0,100,30.17,8.0,Calm,Calm,-,N/A,,Clear,0,2012-10-09 04:35:00
11:55 PM,41.0,41.0,100,30.16,8.0,Calm,Calm,-,N/A,,Clear,0,2012-10-09 04:55:00